Regional Weather Roundup
Issued by NWS Cleveland, OH

Home | Current Version | Previous Version | Graphics & Text | Print | Product List | Glossary On
Versions: 1 2 3 4 5 6 7 8 9 10 11 12 13 14 15 16 17 18 19 20 21 22 23 24 25 26 27 28 29 30 31 32 33 34 35 36 37 38 39 40 41 42 43 44 45 46 47 48 49 50
291
ASUS41 KCLE 101210
RWRCLE
OHIO REGIONAL WEATHER ROUNDUP
NATIONAL WEATHER SERVICE CLEVELAND, OH
700 AM EST SAT DEC 10 2016

NOTE: "FAIR" INDICATES FEW OR NO CLOUDS BELOW 12,000 FEET WITH NO
SIGNIFICANT WEATHER AND/OR OBSTRUCTIONS TO VISIBILITY.

OHZ001>008-015>018-024>027-034-035-043-044-101300-
   NORTHWEST OHIO

CITY           SKY/WX    TMP DP  RH WIND       PRES   REMARKS
DEFIANCE       CLOUDY    21  13  71 VRB6      30.50R WCI  13
FINDLAY        MOCLDY    21  13  71 W12       30.49R WCI   9
TOLEDO EXPRESS MOCLDY    21  15  78 SW13      30.47S WCI   9
TOLEDO EXEC    PTCLDY    22  16  78 W10       30.49R WCI  11
LIMA           CLOUDY    20  14  77 W9        30.49R WCI   9
$$

OHZ009>014-019>023-028>033-038-089-101300-
   NORTHEAST OHIO

CITY           SKY/WX    TMP DP  RH WIND       PRES   REMARKS
CLE-HOPKINS    MOCLDY    24  14  65 SW15      30.47S WCI  11
CLE-LAKEFRONT  CLOUDY    25  17  72 SW21      30.44R WCI  11
CUY CO. ARPT   LGT SNOW  25  19  80 W16G25    30.42  WCI  12
LORAIN-ELYRIA  CLOUDY    22  13  68 W15       30.47R WCI   9
ASHTABULA      LGT SNOW  23  21  92 SW12      30.40R FOG     WCI  12
AKRON-CANTON   FLURRIES  23  14  68 W13       30.44R WCI  11
WOOSTER        CLOUDY    21  14  74 W10       30.46R WCI  10
MANSFIELD      CLOUDY    19  15  84 SW9       30.45R WCI   8
YOUNGSTOWN     CLOUDY    23  16  74 SW15      30.40R WCI  10
$$

OHZ042-051>053-060>062-070>072-077>081-101300-
  SOUTHWEST OHIO

CITY           SKY/WX    TMP DP  RH WIND       PRES   REMARKS
CINC-COVINGTON CLOUDY    20  16  84 W3        30.54R
CINC-LUNKEN    CLOUDY    22  18  85 S3        30.59R
HAMILTON       CLOUDY    22  19  89 CALM      30.57R
DAYTON         CLOUDY    22  17  81 SW7       30.52S WCI  13
WRIGHT-PAT AFB CLOUDY    23  18  82 SW7       30.52R WCI  14
DAYTON GENERAL CLOUDY    21  17  84 SW3       30.52R
WILMINGTON     CLOUDY    21  16  81 W7        30.52R WCI  12
$$

OHZ036-037-039>041-045>050-054>059-063>069-073>076-082>088-101300-
  CENTRAL AND SOUTHEAST OHIO

CITY           SKY/WX    TMP DP  RH WIND       PRES   REMARKS
COLUMBUS       CLOUDY    23  20  88 SW9       30.52R WCI  13
OSU AIRPORT    CLOUDY    23  17  78 W9        30.51R WCI  13
BOLTON FIELD   NOT AVBL
RICKENBACK AFB   N/A     22  19  85 W9        30.53R WCI  12
NEWARK         CLOUDY    23  18  81 SW7       30.50S WCI  15
MARION         CLOUDY    21  14  74 W12       30.50R WCI   9
LANCASTER      FLURRIES  23  18  81 SW7       30.53R WCI  15
ZANESVILLE     CLOUDY    23  18  81 SW6       30.51R WCI  16
NEW PHILLY     CLOUDY    24  17  74 W10       30.49S WCI  14
$$




USA.gov is the U.S. government's official web portal to all federal, state and local government web resources and services.